Regional Weather Roundup
Issued by NWS

Home | Current Version | Previous Version | Text Only | Print | Product List | Glossary On
Versions: 1 2 3 4 5 6 7 8 9 10 11 12 13 14 15 16 17 18 19 20 21 22 23 24 25 26 27 28 29 30 31 32 33 34 35 36 37 38 39 40 41 42 43 44 45 46 47 48 49 50
000
ASUS42 KKEY 021710
RWRKEY

FLORIDA REGIONAL WEATHER ROUNDUP FOR THE FLORIDA KEYS
NATIONAL WEATHER SERVICE KEY WEST FLORIDA
100 PM EDT TUE SEP 02 2014

...SOUTH FLORIDA AND THE KEYS...

CITY           SKY/WX    TMP DP  RH WIND       PRES   REMARKS
FORT MYERS     MOSUNNY   91  71  51 VRB7      30.06F HX  97
SW REGIONAL AP MOSUNNY   89  70  53 VRB5      30.07F HX  94
NAPLES         PTSUNNY   89  73  59 VRB6      30.05F HX  97
MIAMI          MOSUNNY   89  72  56 SE13      30.06F HX  96
WEST KENDALL   MOSUNNY   91  71  51 SE12G21   30.05F HX  97
HOMESTEAD      SUNNY     89  72  58 E8        30.05F HX  95
MARATHON       MOSUNNY   90  77  65 VRB5      30.04F HX 103
BOCA CHICA NAS MOSUNNY   88  73  61 E8        30.05S HX  95
KEY WEST INTL  SUNNY     88  74  63 SE9       30.05S HX  96

...INTERNATIONAL WEATHER...

CITY           SKY/WX    TMP DP  RH WIND       PRES   REMARKS
NASSAU BAHAMAS MOSUNNY   86  72  62 E12       30.07R HX  92
CANCUN MEXICO  PTSUNNY   88  77  70 E8        30.01R HX 100
COZUMEL MEXICO PTSUNNY   88  75  66 E10       30.00R HX  97

ADJACENT COASTAL WATERS...

STATION/POSITION TIME  SKY/WX   TEMP    WIND        PRES    WAVE
                                AIR SEA DIR/SP/G            HT/PER
                 (UTC)          (F)     (DEG/KT/KT) (MB)    (FT/S)
PULASKI SHOAL LI 1700            83     140/  6/  7 1017.7F
SAND KEY         1638            84     160/  9/ 11 1017.4F
SOMBRERO KEY     1700            85     110/  9/ 11 1018.1F
LONG KEY         1600            85 86  110/ 10/ 13 1018.4F
MOLASSES REEF    1700            84 87   90/  9/ 10 1017.6F
FOWEY ROCKS      1700            85 87  100/ 11/ 11 1018.1F
Buoy 42080       NOT AVBL

$$


USA.gov is the U.S. government's official web portal to all federal, state and local government web resources and services.